Time,TemperatureF,DewpointF,PressureIn,WindDirection,WindDirectionDegrees,WindSpeedMPH,WindSpeedGustMPH,Humidity,HourlyPrecipIn,Conditions,Clouds,dailyrainin,SoftwareType,DateUTC
2013-06-14 00:02:00,57.0,-99.9,-100.00,SSW,198,1.0,-999.0,-999,-99.99,,,-99.99,,2013-06-14 07:02:00,
2013-06-14 00:12:00,57.0,-99.9,-100.00,SSW,198,1.0,-999.0,-999,-99.99,,,-99.99,,2013-06-14 07:12:00,
2013-06-14 00:20:00,55.0,-99.9,-100.00,SW,219,1.0,-999.0,-999,-99.99,,,-99.99,,2013-06-14 07:20:00,
2013-06-14 01:12:00,55.0,-99.9,-100.00,SW,219,1.0,-999.0,-999,-99.99,,,-99.99,,2013-06-14 08:12:00,
2013-06-14 01:20:00,54.0,-99.9,-100.00,SSW,203,2.0,-999.0,-999,-99.99,,,-99.99,,2013-06-14 08:20:00,
2013-06-14 02:02:00,54.0,-99.9,-100.00,SSW,203,2.0,-999.0,-999,-99.99,,,-99.99,,2013-06-14 09:02:00,
2013-06-14 02:12:00,54.0,-99.9,-100.00,SSW,203,2.0,-999.0,-999,-99.99,,,-99.99,,2013-06-14 09:12:00,
2013-06-14 02:20:00,54.0,-99.9,-100.00,SSW,202,6.0,-999.0,-999,-99.99,,,-99.99,,2013-06-14 09:20:00,
2013-06-14 03:02:00,54.0,-99.9,-100.00,SSW,202,6.0,-999.0,-999,-99.99,,,-99.99,,2013-06-14 10:02:00,
2013-06-14 03:12:00,54.0,-99.9,-100.00,SSW,202,6.0,-999.0,-999,-99.99,,,-99.99,,2013-06-14 10:12:00,
2013-06-14 03:20:00,54.0,-99.9,-100.00,SW,217,6.0,-999.0,-999,-99.99,,,-99.99,,2013-06-14 10:20:00,
2013-06-14 04:02:00,54.0,-99.9,-100.00,SW,217,6.0,-999.0,-999,-99.99,,,-99.99,,2013-06-14 11:02:00,
2013-06-14 04:11:00,54.0,-99.9,-100.00,SW,217,6.0,-999.0,-999,-99.99,,,-99.99,,2013-06-14 11:11:00,
2013-06-14 04:20:00,54.0,-99.9,-100.00,South,189,6.0,-999.0,-999,-99.99,,,-99.99,,2013-06-14 11:20:00,
2013-06-14 05:02:00,54.0,-99.9,-100.00,South,189,6.0,-999.0,-999,-99.99,,,-99.99,,2013-06-14 12:02:00,
2013-06-14 05:12:00,54.0,-99.9,-100.00,South,189,6.0,-999.0,-999,-99.99,,,-99.99,,2013-06-14 12:12:00,
2013-06-14 05:20:00,54.0,-99.9,-100.00,SSW,192,2.0,-999.0,-999,-99.99,,,-99.99,,2013-06-14 12:20:00,
2013-06-14 06:12:00,54.0,-99.9,-100.00,SSW,192,2.0,-999.0,-999,-99.99,,,-99.99,,2013-06-14 13:12:00,
2013-06-14 06:20:00,55.0,-99.9,-100.00,SSW,192,5.0,-999.0,-999,-99.99,,,-99.99,,2013-06-14 13:20:00,
2013-06-14 07:12:00,55.0,-99.9,-100.00,SSW,192,5.0,-999.0,-999,-99.99,,,-99.99,,2013-06-14 14:12:00,
2013-06-14 07:20:00,54.0,-99.9,-100.00,SSW,199,6.0,-999.0,-999,-99.99,,,-99.99,,2013-06-14 14:20:00,
2013-06-14 08:12:00,54.0,-99.9,-100.00,SSW,199,6.0,-999.0,-999,-99.99,,,-99.99,,2013-06-14 15:12:00,
2013-06-14 08:20:00,54.0,-99.9,-100.00,SW,215,3.0,-999.0,-999,-99.99,,,-99.99,,2013-06-14 15:20:00,
2013-06-14 09:11:00,54.0,-99.9,-100.00,SW,215,3.0,-999.0,-999,-99.99,,,-99.99,,2013-06-14 16:11:00,
2013-06-14 09:20:00,55.0,-99.9,-100.00,SSW,200,6.0,-999.0,-999,-99.99,,,-99.99,,2013-06-14 16:20:00,
2013-06-14 10:12:00,55.0,-99.9,-100.00,SSW,200,6.0,-999.0,-999,-99.99,,,-99.99,,2013-06-14 17:12:00,
2013-06-14 10:20:00,56.0,-99.9,-100.00,SSW,193,3.0,-999.0,-999,-99.99,,,-99.99,,2013-06-14 17:20:00,
2013-06-14 11:12:00,56.0,-99.9,-100.00,SSW,193,3.0,-999.0,-999,-99.99,,,-99.99,,2013-06-14 18:12:00,
2013-06-14 11:20:00,57.0,-99.9,-100.00,SE,142,7.0,-999.0,-999,-99.99,,,-99.99,,2013-06-14 18:20:00,
2013-06-14 12:11:00,57.0,-99.9,-100.00,SE,142,7.0,-999.0,-999,-99.99,,,-99.99,,2013-06-14 19:11:00,
2013-06-14 12:20:00,58.0,-99.9,-100.00,SSW,196,3.0,-999.0,-999,-99.99,,,-99.99,,2013-06-14 19:20:00,
2013-06-14 13:11:00,58.0,-99.9,-100.00,SSW,196,3.0,-999.0,-999,-99.99,,,-99.99,,2013-06-14 20:11:00,
2013-06-14 13:20:00,58.0,-99.9,-100.00,SSW,192,3.0,-999.0,-999,-99.99,,,-99.99,,2013-06-14 20:20:00,
2013-06-14 14:02:00,58.0,-99.9,-100.00,SSW,192,3.0,-999.0,-999,-99.99,,,-99.99,,2013-06-14 21:02:00,
2013-06-14 14:12:00,58.0,-99.9,-100.00,SSW,192,3.0,-999.0,-999,-99.99,,,-99.99,,2013-06-14 21:12:00,
2013-06-14 14:20:00,59.0,-99.9,-100.00,SE,140,5.0,-999.0,-999,-99.99,,,-99.99,,2013-06-14 21:20:00,
2013-06-14 15:02:00,59.0,-99.9,-100.00,SE,140,5.0,-999.0,-999,-99.99,,,-99.99,,2013-06-14 22:02:00,
2013-06-14 15:12:00,59.0,-99.9,-100.00,SE,140,5.0,-999.0,-999,-99.99,,,-99.99,,2013-06-14 22:12:00,
2013-06-14 15:20:00,59.0,-99.9,-100.00,SSE,148,3.0,-999.0,-999,-99.99,,,-99.99,,2013-06-14 22:20:00,
2013-06-14 16:12:00,59.0,-99.9,-100.00,SSE,148,3.0,-999.0,-999,-99.99,,,-99.99,,2013-06-14 23:12:00,
2013-06-14 16:20:00,63.0,-99.9,-100.00,East,81,2.0,-999.0,-999,-99.99,,,-99.99,,2013-06-14 23:20:00,
2013-06-14 17:12:00,63.0,-99.9,-100.00,East,81,2.0,-999.0,-999,-99.99,,,-99.99,,2013-06-15 00:12:00,
2013-06-14 17:20:00,61.0,-99.9,-100.00,North,352,2.0,-999.0,-999,-99.99,,,-99.99,,2013-06-15 00:20:00,
2013-06-14 18:12:00,61.0,-99.9,-100.00,North,352,2.0,-999.0,-999,-99.99,,,-99.99,,2013-06-15 01:12:00,
2013-06-14 18:20:00,59.0,-99.9,-100.00,NE,39,3.0,-999.0,-999,-99.99,,,-99.99,,2013-06-15 01:20:00,
2013-06-14 19:02:00,59.0,-99.9,-100.00,NE,39,3.0,-999.0,-999,-99.99,,,-99.99,,2013-06-15 02:02:00,
2013-06-14 19:12:00,59.0,-99.9,-100.00,NE,39,3.0,-999.0,-999,-99.99,,,-99.99,,2013-06-15 02:12:00,
2013-06-14 19:20:00,61.0,-99.9,-100.00,NNE,16,1.0,-999.0,-999,-99.99,,,-99.99,,2013-06-15 02:20:00,
2013-06-14 20:02:00,61.0,-99.9,-100.00,NNE,16,1.0,-999.0,-999,-99.99,,,-99.99,,2013-06-15 03:02:00,
2013-06-14 20:11:00,61.0,-99.9,-100.00,NNE,16,1.0,-999.0,-999,-99.99,,,-99.99,,2013-06-15 03:11:00,
2013-06-14 20:20:00,61.0,-99.9,-100.00,WNW,287,0.0,-999.0,-999,-99.99,,,-99.99,,2013-06-15 03:20:00,
2013-06-14 21:02:00,61.0,-99.9,-100.00,WNW,287,0.0,-999.0,-999,-99.99,,,-99.99,,2013-06-15 04:02:00,
2013-06-14 21:12:00,61.0,-99.9,-100.00,WNW,287,0.0,-999.0,-999,-99.99,,,-99.99,,2013-06-15 04:12:00,
2013-06-14 21:20:00,57.0,-99.9,-100.00,WSW,249,0.0,-999.0,-999,-99.99,,,-99.99,,2013-06-15 04:20:00,
2013-06-14 22:02:00,57.0,-99.9,-100.00,WSW,249,0.0,-999.0,-999,-99.99,,,-99.99,,2013-06-15 05:02:00,
2013-06-14 22:12:00,57.0,-99.9,-100.00,WSW,249,0.0,-999.0,-999,-99.99,,,-99.99,,2013-06-15 05:12:00,
2013-06-14 22:20:00,57.0,-99.9,-100.00,WSW,251,0.0,-999.0,-999,-99.99,,,-99.99,,2013-06-15 05:20:00,
2013-06-14 23:12:00,57.0,-99.9,-100.00,WSW,251,0.0,-999.0,-999,-99.99,,,-99.99,,2013-06-15 06:12:00,
2013-06-14 23:20:00,56.0,-99.9,-100.00,WNW,299,5.0,-999.0,-999,-99.99,,,-99.99,,2013-06-15 06:20:00,